SVA1641 OEJN-OEAB

Flight info

Callsign SVA1641
Flight time 1h 10m
Altitude 25000
Route RIBAM L677 ABKAR V38 ABH
Aircraft A321/M-SDE3FGHIRWY/LB1

Departure

Time 2026-05-05 21:45
Airport King Abdulaziz International Airport (OEJN)

Arrival

Time 2026-05-05 22:55
Airport Abha International Airport (OEAB)
Time Latitude Longitude Altitude Speed Heading
2026-05-05 20:56 21.66268 39.17073 35 ft 0 kts 140°
2026-05-05 21:35 21.66283 39.17059 36 ft 4 kts 129°
2026-05-05 21:35 21.66297 39.17034 36 ft 4 kts 106°
2026-05-05 21:35 21.66299 39.17007 36 ft 4 kts 73°
2026-05-05 21:35 21.66286 39.16986 36 ft 4 kts 30°
2026-05-05 21:36 21.66277 39.16981 36 ft 1 kts 23°
2026-05-05 21:39 21.66293 39.16988 36 ft 4 kts 23°
2026-05-05 21:39 21.66347 39.17010 36 ft 8 kts 14°
2026-05-05 21:39 21.66390 39.17009 36 ft 11 kts 336°
2026-05-05 21:39 21.66404 39.16929 36 ft 14 kts 254°
2026-05-05 21:40 21.66370 39.16831 36 ft 12 kts 247°
2026-05-05 21:40 21.66346 39.16766 36 ft 9 kts 250°
2026-05-05 21:40 21.66325 39.16703 36 ft 5 kts 250°
2026-05-05 21:40 21.66309 39.16658 36 ft 7 kts 249°
2026-05-05 21:41 21.66306 39.16649 36 ft 2 kts 250°
2026-05-05 21:41 21.66299 39.16629 36 ft 4 kts 250°
2026-05-05 21:41 21.66286 39.16591 36 ft 7 kts 250°
2026-05-05 21:41 21.66268 39.16537 36 ft 9 kts 250°
2026-05-05 21:42 21.66258 39.16509 36 ft 0 kts 249°
2026-05-05 21:43 21.66255 39.16500 35 ft 3 kts 249°
2026-05-05 21:43 21.66244 39.16469 35 ft 6 kts 249°
2026-05-05 21:43 21.66268 39.16432 36 ft 0 kts 340°
2026-05-05 21:44 21.66269 39.16432 36 ft 2 kts 340°
2026-05-05 21:44 21.66564 39.16316 42 ft 94 kts 339°
2026-05-05 21:45 21.67465 39.15961 42 ft 177 kts 340°
2026-05-05 21:45 21.68792 39.15434 303 ft 218 kts 339°
2026-05-05 21:45 21.70275 39.14818 916 ft 240 kts 339°
2026-05-05 21:45 21.71908 39.14170 1733 ft 257 kts 340°
2026-05-05 21:46 21.73595 39.13510 2719 ft 259 kts 340°
2026-05-05 21:46 21.75310 39.12836 3538 ft 264 kts 340°
2026-05-05 21:46 21.77050 39.12153 4297 ft 269 kts 339°
2026-05-05 21:46 21.78823 39.11452 5028 ft 274 kts 340°
2026-05-05 21:47 21.80629 39.10743 5638 ft 279 kts 340°
2026-05-05 21:47 21.82456 39.10025 5964 ft 281 kts 340°
2026-05-05 21:47 21.84295 39.09304 6033 ft 281 kts 340°
2026-05-05 21:47 21.86130 39.08582 6031 ft 282 kts 340°
2026-05-05 21:48 21.87983 39.07851 6040 ft 290 kts 338°
2026-05-05 21:48 21.89675 39.06662 6676 ft 292 kts 314°
2026-05-05 21:48 21.90767 39.04860 7566 ft 288 kts 291°
2026-05-05 21:48 21.91113 39.02744 8278 ft 290 kts 267°
2026-05-05 21:49 21.90642 39.00630 8944 ft 294 kts 244°
2026-05-05 21:49 21.89414 38.98876 9593 ft 297 kts 220°
2026-05-05 21:49 21.87608 38.97787 10233 ft 304 kts 197°
2026-05-05 21:49 21.85461 38.97549 10581 ft 321 kts 176°
2026-05-05 21:50 21.83188 38.97828 10870 ft 339 kts 173°
2026-05-05 21:50 21.80788 38.98161 11135 ft 357 kts 173°
2026-05-05 21:50 21.78262 38.98475 11373 ft 373 kts 174°
2026-05-05 21:50 21.75624 38.98777 11606 ft 389 kts 174°
2026-05-05 21:51 21.72883 38.99076 11877 ft 401 kts 175°
2026-05-05 21:51 21.70093 38.99372 12373 ft 404 kts 175°
2026-05-05 21:51 21.67288 38.99668 12916 ft 406 kts 175°
2026-05-05 21:51 21.64466 38.99967 13441 ft 409 kts 175°
2026-05-05 21:52 21.58772 39.00566 14467 ft 413 kts 175°
2026-05-05 21:52 21.55903 39.00867 14935 ft 416 kts 175°
2026-05-05 21:52 21.53013 39.01172 15417 ft 419 kts 175°
2026-05-05 21:53 21.50101 39.01475 15910 ft 422 kts 175°
2026-05-05 21:53 21.47174 39.01782 16392 ft 424 kts 175°
2026-05-05 21:53 21.44234 39.02090 16843 ft 426 kts 175°
2026-05-05 21:53 21.41315 39.02396 17278 ft 428 kts 175°
2026-05-05 21:54 21.38345 39.02707 17729 ft 430 kts 175°
2026-05-05 21:54 21.35355 39.03021 18174 ft 433 kts 175°
2026-05-05 21:54 21.32348 39.03335 18614 ft 436 kts 175°
2026-05-05 21:54 21.29320 39.03652 19041 ft 439 kts 175°
2026-05-05 21:55 21.26274 39.03971 19473 ft 442 kts 175°
2026-05-05 21:55 21.23206 39.04292 19892 ft 445 kts 175°
2026-05-05 21:55 21.20108 39.04617 20305 ft 448 kts 175°
2026-05-05 21:55 21.16955 39.04945 20741 ft 451 kts 175°
2026-05-05 21:56 21.13871 39.05267 21148 ft 454 kts 175°
2026-05-05 21:56 21.10712 39.05597 21569 ft 457 kts 175°
2026-05-05 21:56 21.07537 39.05927 22014 ft 460 kts 175°
2026-05-05 21:56 21.04338 39.06262 22442 ft 464 kts 175°
2026-05-05 21:57 21.01112 39.06599 22861 ft 467 kts 175°
2026-05-05 21:57 20.97870 39.06938 23232 ft 470 kts 175°
2026-05-05 21:57 20.94609 39.07276 23583 ft 472 kts 175°
2026-05-05 21:57 20.91334 39.07617 23890 ft 475 kts 175°
2026-05-05 21:58 20.88037 39.07961 24262 ft 476 kts 175°
2026-05-05 21:58 20.84745 39.08304 24675 ft 475 kts 176°
2026-05-05 21:58 20.81453 39.08646 24879 ft 475 kts 176°
2026-05-05 21:58 20.78170 39.08986 24913 ft 474 kts 176°
2026-05-05 21:59 20.74884 39.09327 24910 ft 474 kts 176°
2026-05-05 21:59 20.71616 39.09772 24897 ft 475 kts 171°
2026-05-05 21:59 20.68436 39.10753 24893 ft 478 kts 161°
2026-05-05 21:59 20.65353 39.12080 24893 ft 478 kts 159°
2026-05-05 22:00 20.62282 39.13454 24897 ft 479 kts 159°
2026-05-05 22:00 20.59207 39.14809 24901 ft 478 kts 159°
2026-05-05 22:00 20.56127 39.16164 24904 ft 479 kts 159°
2026-05-05 22:00 20.53041 39.17513 24929 ft 478 kts 159°
2026-05-05 22:01 20.49964 39.18854 24964 ft 478 kts 159°
2026-05-05 22:01 20.46882 39.20190 24990 ft 479 kts 159°
2026-05-05 22:01 20.43790 39.21535 25002 ft 479 kts 159°
2026-05-05 22:01 20.40706 39.22877 25001 ft 479 kts 159°
2026-05-05 22:02 20.37627 39.24214 25016 ft 479 kts 160°
2026-05-05 22:02 20.34541 39.25554 25018 ft 479 kts 160°
2026-05-05 22:02 20.31449 39.26895 25017 ft 479 kts 159°
2026-05-05 22:02 20.28364 39.28235 25018 ft 479 kts 159°
2026-05-05 22:03 20.25272 39.29576 25001 ft 480 kts 159°
2026-05-05 22:03 20.22185 39.30915 24988 ft 480 kts 159°
2026-05-05 22:03 20.19093 39.32251 24997 ft 479 kts 160°
2026-05-05 22:03 20.16043 39.33570 24999 ft 480 kts 160°
2026-05-05 22:04 20.12912 39.34923 25002 ft 480 kts 159°
2026-05-05 22:04 20.09858 39.36246 25000 ft 480 kts 159°
2026-05-05 22:04 20.06763 39.37587 25006 ft 480 kts 159°
2026-05-05 22:04 20.03674 39.38923 25008 ft 480 kts 160°
2026-05-05 22:05 20.00584 39.40262 25015 ft 480 kts 160°
2026-05-05 22:05 19.97488 39.41599 25015 ft 481 kts 160°
2026-05-05 22:05 19.94385 39.42932 25026 ft 481 kts 160°
2026-05-05 22:05 19.91284 39.44260 25038 ft 481 kts 160°
2026-05-05 22:06 19.88176 39.45597 25045 ft 481 kts 160°
2026-05-05 22:06 19.85081 39.46934 25049 ft 481 kts 160°
2026-05-05 22:06 19.81970 39.48274 25052 ft 481 kts 160°
2026-05-05 22:06 19.78870 39.49611 25058 ft 481 kts 159°
2026-05-05 22:07 19.75770 39.50952 25061 ft 482 kts 159°
2026-05-05 22:07 19.72669 39.52291 25061 ft 482 kts 159°
2026-05-05 22:07 19.69558 39.53631 25061 ft 482 kts 160°
2026-05-05 22:07 19.66451 39.54963 25068 ft 482 kts 160°
2026-05-05 22:08 19.63343 39.56295 25070 ft 482 kts 160°
2026-05-05 22:08 19.60242 39.57631 25071 ft 482 kts 159°
2026-05-05 22:08 19.57140 39.58969 25075 ft 482 kts 160°
2026-05-05 22:08 19.54041 39.60328 25077 ft 482 kts 158°
2026-05-05 22:09 19.51108 39.62056 25076 ft 485 kts 147°
2026-05-05 22:09 19.48515 39.64356 25088 ft 488 kts 136°
2026-05-05 22:09 19.46384 39.67162 25101 ft 490 kts 126°
2026-05-05 22:09 19.44499 39.70166 25110 ft 491 kts 124°
2026-05-05 22:10 19.42636 39.73184 25111 ft 490 kts 124°
2026-05-05 22:10 19.40756 39.76201 25111 ft 490 kts 125°
2026-05-05 22:10 19.38868 39.79208 25117 ft 490 kts 125°
2026-05-05 22:10 19.36981 39.82207 25118 ft 490 kts 125°
2026-05-05 22:11 19.35093 39.85206 25123 ft 490 kts 125°
2026-05-05 22:11 19.33201 39.88206 25129 ft 490 kts 125°
2026-05-05 22:11 19.31308 39.91203 25130 ft 490 kts 125°
2026-05-05 22:11 19.29406 39.94203 25131 ft 490 kts 125°
2026-05-05 22:12 19.27513 39.97195 25140 ft 490 kts 125°
2026-05-05 22:12 19.25614 40.00190 25140 ft 490 kts 125°
2026-05-05 22:12 19.23717 40.03180 25145 ft 489 kts 125°
2026-05-05 22:12 19.21811 40.06167 25147 ft 490 kts 125°
2026-05-05 22:13 19.19920 40.09167 25150 ft 490 kts 125°
2026-05-05 22:13 19.18028 40.12163 25148 ft 490 kts 125°
2026-05-05 22:13 19.16124 40.15148 25153 ft 489 kts 125°
2026-05-05 22:13 19.14229 40.18136 25158 ft 489 kts 125°
2026-05-05 22:14 19.12339 40.21134 25160 ft 490 kts 125°
2026-05-05 22:14 19.10448 40.24125 25163 ft 489 kts 125°
2026-05-05 22:14 19.08686 40.27201 25163 ft 491 kts 118°
2026-05-05 22:14 19.07368 40.30529 25171 ft 492 kts 111°
2026-05-05 22:15 19.06190 40.33922 25170 ft 492 kts 111°
2026-05-05 22:15 19.05030 40.37327 25176 ft 491 kts 110°
2026-05-05 22:15 19.03870 40.40725 25178 ft 491 kts 111°
2026-05-05 22:15 19.02697 40.44112 25179 ft 492 kts 111°
2026-05-05 22:16 19.01517 40.47506 25183 ft 492 kts 111°
2026-05-05 22:16 19.00341 40.50896 25185 ft 492 kts 111°
2026-05-05 22:16 18.99158 40.54290 25188 ft 492 kts 111°
2026-05-05 22:16 18.97980 40.57675 25196 ft 491 kts 111°
2026-05-05 22:17 18.96818 40.61020 25221 ft 491 kts 111°
2026-05-05 22:17 18.95638 40.64406 25235 ft 491 kts 111°
2026-05-05 22:17 18.94460 40.67789 25241 ft 492 kts 111°
2026-05-05 22:17 18.93279 40.71181 25241 ft 491 kts 111°
2026-05-05 22:18 18.92098 40.74563 25241 ft 491 kts 111°
2026-05-05 22:18 18.90905 40.77989 25246 ft 491 kts 111°
2026-05-05 22:18 18.89743 40.81322 25246 ft 491 kts 111°
2026-05-05 22:18 18.88560 40.84708 25239 ft 491 kts 111°
2026-05-05 22:19 18.87368 40.88085 25232 ft 491 kts 111°
2026-05-05 22:19 18.86178 40.91455 25235 ft 490 kts 111°
2026-05-05 22:19 18.85001 40.94836 25240 ft 490 kts 111°
2026-05-05 22:19 18.83823 40.98215 25240 ft 491 kts 111°
2026-05-05 22:20 18.82645 41.01590 25241 ft 490 kts 111°
2026-05-05 22:20 18.81458 41.04971 25240 ft 491 kts 111°
2026-05-05 22:20 18.80273 41.08340 25239 ft 490 kts 111°
2026-05-05 22:20 18.79081 41.11715 25241 ft 490 kts 111°
2026-05-05 22:21 18.77891 41.15081 25243 ft 490 kts 111°
2026-05-05 22:21 18.76700 41.18457 25246 ft 490 kts 111°
2026-05-05 22:21 18.75515 41.21826 25251 ft 490 kts 111°
2026-05-05 22:21 18.74327 41.25192 25248 ft 490 kts 111°
2026-05-05 22:22 18.73138 41.28565 25251 ft 490 kts 111°
2026-05-05 22:22 18.71948 41.31926 25249 ft 490 kts 111°
2026-05-05 22:22 18.70755 41.35304 25252 ft 490 kts 111°
2026-05-05 22:22 18.69568 41.38668 25257 ft 490 kts 111°
2026-05-05 22:23 18.68373 41.42035 25258 ft 490 kts 111°
2026-05-05 22:23 18.67178 41.45400 25257 ft 490 kts 111°
2026-05-05 22:23 18.65982 41.48767 25262 ft 490 kts 111°
2026-05-05 22:23 18.64780 41.52123 25263 ft 490 kts 111°
2026-05-05 22:24 18.63989 41.54352 25267 ft 490 kts 111°
2026-05-05 22:24 18.62799 41.57728 25269 ft 490 kts 111°
2026-05-05 22:24 18.61608 41.61090 25272 ft 490 kts 111°
2026-05-05 22:24 18.60416 41.64451 25268 ft 489 kts 111°
2026-05-05 22:25 18.59223 41.67811 25253 ft 490 kts 111°
2026-05-05 22:25 18.58035 41.71174 25238 ft 489 kts 111°
2026-05-05 22:25 18.56845 41.74533 25236 ft 490 kts 111°
2026-05-05 22:25 18.55650 41.77892 25239 ft 490 kts 111°
2026-05-05 22:26 18.54454 41.81256 25241 ft 490 kts 111°
2026-05-05 22:26 18.53254 41.84614 25247 ft 489 kts 111°
2026-05-05 22:26 18.52059 41.87972 25251 ft 489 kts 111°
2026-05-05 22:26 18.50866 41.91327 25254 ft 489 kts 111°
2026-05-05 22:27 18.49671 41.94685 25257 ft 489 kts 111°
2026-05-05 22:27 18.48473 41.98041 25259 ft 489 kts 111°
2026-05-05 22:27 18.47295 42.01397 25262 ft 490 kts 109°
2026-05-05 22:27 18.46591 42.04902 25254 ft 487 kts 98°
2026-05-05 22:28 18.46184 42.08370 24447 ft 472 kts 97°
2026-05-05 22:28 18.45804 42.11790 23080 ft 470 kts 97°
2026-05-05 22:28 18.45407 42.15205 21626 ft 469 kts 97°
2026-05-05 22:28 18.44992 42.18606 20295 ft 465 kts 97°
2026-05-05 22:29 18.44578 42.21951 19058 ft 457 kts 97°
2026-05-05 22:29 18.44495 42.25274 17720 ft 451 kts 85°
2026-05-05 22:29 18.45052 42.28498 16431 ft 446 kts 73°
2026-05-05 22:29 18.46214 42.31495 15183 ft 440 kts 61°
2026-05-05 22:30 18.47924 42.34081 14186 ft 435 kts 49°
2026-05-05 22:30 18.50061 42.36298 13226 ft 428 kts 42°
2026-05-05 22:30 18.52307 42.38327 12369 ft 422 kts 40°
2026-05-05 22:30 18.54562 42.40286 11853 ft 419 kts 40°
2026-05-05 22:31 18.56819 42.42223 11624 ft 418 kts 40°
2026-05-05 22:31 18.59076 42.44164 11549 ft 419 kts 40°
2026-05-05 22:31 18.61426 42.45972 11503 ft 419 kts 30°
2026-05-05 22:31 18.64104 42.47168 11489 ft 420 kts 17°
2026-05-05 22:32 18.66979 42.47640 11488 ft 421 kts
2026-05-05 22:32 18.69900 42.47362 11483 ft 421 kts 348°
2026-05-05 22:32 18.72616 42.46493 11485 ft 398 kts 337°
2026-05-05 22:32 18.74940 42.45075 11474 ft 376 kts 323°
2026-05-05 22:33 18.76757 42.43203 11467 ft 356 kts 308°
2026-05-05 22:33 18.78043 42.41046 11461 ft 339 kts 295°
2026-05-05 22:33 18.78814 42.38759 11449 ft 323 kts 282°
2026-05-05 22:33 18.79092 42.36466 11436 ft 309 kts 270°
2026-05-05 22:34 18.78937 42.34222 11433 ft 307 kts 259°
2026-05-05 22:34 18.78372 42.32068 11441 ft 306 kts 248°
2026-05-05 22:34 18.77401 42.30060 11447 ft 306 kts 236°
2026-05-05 22:34 18.76088 42.28310 11449 ft 305 kts 225°
2026-05-05 22:35 18.74483 42.26865 11449 ft 304 kts 214°
2026-05-05 22:35 18.72641 42.25783 11452 ft 303 kts 202°
2026-05-05 22:35 18.70642 42.25094 11454 ft 302 kts 192°
2026-05-05 22:35 18.68564 42.24830 11457 ft 302 kts 180°
2026-05-05 22:36 18.66474 42.24994 11460 ft 301 kts 169°
2026-05-05 22:36 18.64467 42.25591 11462 ft 300 kts 156°
2026-05-05 22:36 18.62624 42.26631 11481 ft 301 kts 149°
2026-05-05 22:36 18.60823 42.27764 11484 ft 301 kts 149°
2026-05-05 22:37 18.59036 42.28903 11484 ft 301 kts 149°
2026-05-05 22:37 18.57247 42.30046 11476 ft 299 kts 148°
2026-05-05 22:37 18.55518 42.31150 11469 ft 284 kts 148°
2026-05-05 22:37 18.53880 42.32203 11462 ft 267 kts 149°
2026-05-05 22:38 18.52177 42.32944 11481 ft 265 kts 160°
2026-05-05 22:38 18.50470 42.33657 11490 ft 264 kts 154°
2026-05-05 22:38 18.48876 42.34610 11486 ft 264 kts 145°
2026-05-05 22:38 18.47424 42.35797 11499 ft 264 kts 138°
2026-05-05 22:39 18.46108 42.37139 11502 ft 264 kts 133°
2026-05-05 22:39 18.44886 42.38581 11497 ft 264 kts 129°
2026-05-05 22:39 18.43723 42.40073 11493 ft 263 kts 129°
2026-05-05 22:39 18.42568 42.41573 11503 ft 264 kts 129°
2026-05-05 22:40 18.41416 42.43074 11507 ft 264 kts 129°
2026-05-05 22:40 18.40260 42.44574 11433 ft 263 kts 129°
2026-05-05 22:40 18.39110 42.46070 11184 ft 262 kts 129°
2026-05-05 22:40 18.37978 42.47543 10867 ft 261 kts 129°
2026-05-05 22:41 18.36831 42.49032 10528 ft 262 kts 129°
2026-05-05 22:41 18.35672 42.50539 10175 ft 260 kts 129°
2026-05-05 22:41 18.34559 42.51987 9829 ft 257 kts 129°
2026-05-05 22:41 18.33445 42.53435 9481 ft 252 kts 129°
2026-05-05 22:42 18.32350 42.54855 9144 ft 249 kts 129°
2026-05-05 22:42 18.31280 42.56246 8818 ft 242 kts 129°
2026-05-05 22:42 18.30228 42.57585 8513 ft 231 kts 130°
2026-05-05 22:42 18.29268 42.58784 8618 ft 189 kts 129°
2026-05-05 22:43 18.28469 42.59914 8720 ft 203 kts 133°
2026-05-05 22:43 18.27512 42.61110 8989 ft 224 kts 128°
2026-05-05 22:43 18.26498 42.62430 9437 ft 239 kts 129°
2026-05-05 22:43 18.25418 42.63827 9875 ft 253 kts 129°
2026-05-05 22:44 18.24274 42.65316 10313 ft 267 kts 128°
2026-05-05 22:44 18.23120 42.66833 10988 ft 264 kts 128°
2026-05-05 22:44 18.21962 42.68331 11372 ft 264 kts 131°
2026-05-05 22:44 18.20699 42.69723 11502 ft 262 kts 134°
2026-05-05 22:45 18.19411 42.71075 11531 ft 261 kts 134°
2026-05-05 22:45 18.18129 42.72426 11537 ft 261 kts 134°
2026-05-05 22:45 18.16855 42.73777 11535 ft 260 kts 135°
2026-05-05 22:45 18.15555 42.75094 11525 ft 260 kts 143°
2026-05-05 22:46 18.13951 42.75956 11519 ft 260 kts 163°
2026-05-05 22:46 18.12156 42.76231 11518 ft 262 kts 179°
2026-05-05 22:46 18.10366 42.75924 11517 ft 263 kts 199°
2026-05-05 22:46 18.08693 42.75203 11512 ft 256 kts 203°
2026-05-05 22:47 18.07064 42.74457 11499 ft 254 kts 200°
2026-05-05 22:47 18.05355 42.74042 11479 ft 252 kts 178°
2026-05-05 22:47 18.03624 42.74301 11473 ft 252 kts 160°
2026-05-05 22:47 18.02099 42.75180 11469 ft 251 kts 137°
2026-05-05 22:48 18.01047 42.76632 11468 ft 251 kts 114°
2026-05-05 22:48 18.00650 42.78404 11468 ft 252 kts 90°
2026-05-05 22:48 18.00958 42.80204 11470 ft 253 kts 68°
2026-05-05 22:48 18.01904 42.81766 11474 ft 254 kts 50°
2026-05-05 22:49 18.03056 42.83098 11314 ft 238 kts 47°
2026-05-05 22:49 18.04254 42.84097 11203 ft 199 kts 33°
2026-05-05 22:49 18.05339 42.84776 10960 ft 170 kts 16°
2026-05-05 22:49 18.06486 42.84754 10817 ft 169 kts 335°
2026-05-05 22:50 18.07352 42.83942 10559 ft 167 kts 312°
2026-05-05 22:50 18.08141 42.83049 10293 ft 166 kts 314°
2026-05-05 22:50 18.08945 42.82180 10034 ft 165 kts 314°
2026-05-05 22:50 18.09754 42.81322 9901 ft 165 kts 316°
2026-05-05 22:51 18.10636 42.80555 9779 ft 164 kts 325°
2026-05-05 22:51 18.11639 42.79986 9644 ft 164 kts 336°
2026-05-05 22:51 18.12704 42.79571 9276 ft 163 kts 339°
2026-05-05 22:51 18.13667 42.78979 8907 ft 162 kts 317°
2026-05-05 22:52 18.14390 42.78073 8713 ft 162 kts 308°
2026-05-05 22:52 18.15084 42.77152 8589 ft 160 kts 308°
2026-05-05 22:52 18.15777 42.76232 8387 ft 160 kts 309°
2026-05-05 22:52 18.16494 42.75346 8150 ft 159 kts 310°
2026-05-05 22:53 18.17219 42.74470 7986 ft 158 kts 311°
2026-05-05 22:53 18.17930 42.73596 7838 ft 158 kts 309°
2026-05-05 22:53 18.18612 42.72684 7878 ft 158 kts 307°
2026-05-05 22:53 18.19286 42.71770 7857 ft 158 kts 310°
2026-05-05 22:54 18.20019 42.70916 7705 ft 157 kts 313°
2026-05-05 22:54 18.20727 42.70047 7404 ft 156 kts 305°
2026-05-05 22:54 18.21355 42.69117 7323 ft 156 kts 308°
2026-05-05 22:54 18.22056 42.68251 7142 ft 155 kts 310°
2026-05-05 22:55 18.22723 42.67358 7045 ft 155 kts 308°
2026-05-05 22:55 18.23399 42.66484 6882 ft 151 kts 309°
2026-05-05 22:55 18.23976 42.65740 6874 ft 97 kts 310°
2026-05-05 22:55 18.24212 42.65428 6877 ft 22 kts 309°
2026-05-05 22:56 18.24309 42.65293 6875 ft 24 kts 297°
2026-05-05 22:56 18.24365 42.65124 6876 ft 24 kts 280°
2026-05-05 22:56 18.24375 42.64970 6854 ft 21 kts 227°
2026-05-05 22:56 18.24270 42.65033 6858 ft 23 kts 131°
2026-05-05 22:57 18.24161 42.65162 6861 ft 25 kts 130°
2026-05-05 22:57 18.24048 42.65307 6870 ft 27 kts 128°
2026-05-05 22:57 18.23926 42.65466 6875 ft 29 kts 129°
2026-05-05 22:57 18.23795 42.65635 6873 ft 31 kts 129°
2026-05-05 22:58 18.23659 42.65810 6876 ft 22 kts 129°
2026-05-05 22:58 18.23563 42.65934 6875 ft 22 kts 129°
2026-05-05 22:58 18.23496 42.65964 6876 ft 10 kts 222°
2026-05-05 22:58 18.23460 42.65929 6879 ft 4 kts 219°